KC2TER Weather Reports


time (UTC)temp
C
wind
direction
speed
KPH
gust
KPH
rain 1hr
cm
rain 24hr
cm
rain mn
cm
humidity
%
barometer
mb
20260506201917 19 92 6.4 9.7 0.00 0.03 0.03 81 1007.0
20260506201414 19 89 1.6 8.0 0.00 0.03 0.03 81 1007.2
20260506200911 19 152 8.0 12.9 0.00 0.03 0.03 81 1007.1
20260506200407 19 57 3.2 8.0 0.00 0.03 0.03 81 1007.3
20260506195903 18 119 4.8 12.9 0.00 0.03 0.03 82 1007.2
20260506195401 18 71 4.8 9.7 0.00 0.03 0.03 82 1007.3
20260506194857 18 115 6.4 9.7 0.00 0.03 0.03 82 1007.5
20260506194354 18 119 4.8 12.9 0.00 0.03 0.03 83 1007.4
20260506193851 18 162 4.8 11.3 0.00 0.03 0.03 84 1007.7
20260506193348 18 116 11.3 20.9 0.18 0.03 0.03 84 1007.4
20260506192844 18 81 8.0 17.7 0.18 0.03 0.03 84 1007.5
20260506192341 18 89 4.8 14.5 0.00 0.00 0.00 86 1007.6
20260506191838 17 104 1.6 22.5 0.00 0.00 0.00 87 1007.6
20260506191334 18 99 4.8 14.5 0.00 0.00 0.00 86 1007.6
20260506190832 17 49 6.4 9.7 0.00 0.00 0.00 88 1007.6
20260506190328 17 158 8.0 11.3 0.00 0.00 0.00 91 1007.7
20260506185825 17 108 6.4 20.9 0.00 0.00 0.00 89 1007.9
20260506185322 18 97 4.8 20.9 0.00 0.00 0.00 87 1007.8
20260506184819 18 103 3.2 4.8 0.00 0.00 0.00 88 1007.8
20260506184316 18 110 1.6 3.2 0.00 0.00 0.00 85 1007.6
20260506183813 18 102 1.6 1.6 0.00 0.00 0.00 84 1007.5
20260506183308 18 101 0.0 3.2 0.00 0.00 0.00 83 1007.5
20260506182806 18 107 1.6 3.2 0.00 0.00 0.00 84 1007.8
20260506182306 18 104 1.6 1.6 0.00 0.00 0.00 85 1007.6
20260506181801 18 94 1.6 4.8 0.00 0.00 0.00 85 1007.8
20260506181258 18 105 0.0 4.8 0.00 0.00 0.00 85 1007.7
20260506180755 18 105 1.6 8.0 0.00 0.00 0.00 85 1008.0
20260506180251 18 108 1.6 3.2 0.00 0.00 0.00 86 1007.9
20260506175747 17 108 1.6 3.2 0.00 0.00 0.00 87 1008.1
20260506175244 17 104 4.8 9.7 0.00 0.00 0.00 87 1008.3
20260506174742 17 103 1.6 14.5 0.00 0.00 0.00 88 1008.1
20260506174239 17 81 1.6 4.8 0.00 0.00 0.00 88 1008.3
20260506173737 17 135 4.8 11.3 0.00 0.00 0.00 88 1008.4
20260506173233 17 107 1.6 4.8 0.00 0.00 0.00 88 1008.1
20260506172730 18 87 4.8 8.0 0.00 0.00 0.00 88 1008.5
20260506172227 18 103 0.0 3.2 0.00 0.00 0.00 87 1008.5
20260506171724 18 74 1.6 4.8 0.00 0.00 0.00 86 1008.4
20260506171222 18 108 1.6 3.2 0.00 0.00 0.00 86 1008.5
20260506170719 17 101 0.0 3.2 0.00 0.00 0.00 87 1008.9
20260506170215 17 94 1.6 3.2 0.00 0.00 0.00 87 1008.8
20260506165714 17 98 1.6 3.2 0.00 0.00 0.00 87 1008.9
20260506165210 17 105 1.6 8.0 0.00 0.00 0.00 88 1009.3
20260506164708 17 96 1.6 3.2 0.00 0.00 0.00 88 1009.3
20260506164205 17 101 1.6 11.3 0.00 0.00 0.00 88 1009.4
20260506163701 17 100 4.8 8.0 0.00 0.00 0.00 87 1009.6
20260506163156 17 112 0.0 8.0 0.00 0.00 0.00 86 1009.7
20260506162653 18 98 1.6 4.8 0.00 0.00 0.00 84 1009.5
20260506162150 18 112 1.6 8.0 0.00 0.00 0.00 84 1009.9
20260506161647 18 97 3.2 8.0 0.00 0.00 0.00 82 1009.8
20260506161144 18 87 3.2 4.8 0.00 0.00 0.00 81 1009.8
20260506160642 18 93 1.6 9.7 0.00 0.00 0.00 81 1009.5
20260506160139 19 96 3.2 4.8 0.00 0.00 0.00 79 1009.6
20260506155637 20 54 3.2 9.7 0.00 0.00 0.00 76 1009.6
20260506155134 20 92 4.8 8.0 0.00 0.00 0.00 75 1009.7
20260506153236 20 97 0.0 9.7 0.00 0.00 0.00 76 1009.6
20260506152733 20 107 0.0 4.8 0.00 0.00 0.00 75 1009.7
20260506152230 20 102 0.0 4.8 0.00 0.00 0.00 75 1009.5
20260506151729 20 67 4.8 4.8 0.00 0.00 0.00 75 1009.8
20260506151225 20 105 1.6 3.2 0.00 0.00 0.00 75 1009.5
20260506150722 20 73 1.6 4.8 0.00 0.00 0.00 75 1009.9
20260506150219 20 93 1.6 8.0 0.00 0.00 0.00 74 1009.8
20260506145716 20 99 1.6 4.8 0.00 0.00 0.00 73 1009.7
20260506145212 20 107 3.2 4.8 0.00 0.00 0.00 74 1009.7
20260506144710 20 100 1.6 1.6 0.00 0.00 0.00 76 1009.5
20260506144207 20 105 0.0 1.6 0.00 0.00 0.00 75 1009.6
20260506143704 20 90 0.0 3.2 0.00 0.00 0.00 73 1009.5
20260506143202 21 114 0.0 3.2 0.00 0.00 0.00 70 1009.8
20260506142700 21 104 1.6 1.6 0.00 0.00 0.00 69 1009.9
20260506142158 22 92 1.6 4.8 0.00 0.00 0.00 64 1009.6
20260506141655 22 27 3.2 11.3 0.00 0.00 0.00 63 1009.6
20260506141153 22 101 8.0 12.9 0.00 0.00 0.00 64 1009.5
20260506140651 22 83 4.8 14.5 0.00 0.00 0.00 65 1009.6
20260506140148 21 104 1.6 9.7 0.00 0.00 0.00 65 1009.7
20260506135645 21 111 4.8 12.9 0.00 0.00 0.00 65 1009.6
20260506135141 22 75 6.4 12.9 0.00 0.00 0.00 64 1009.8
20260506134637 21 135 11.3 20.9 0.00 0.00 0.00 65 1009.9
20260506134133 21 130 6.4 12.9 0.00 0.00 0.00 65 1010.1
20260506133631 21 91 4.8 4.8 0.00 0.00 0.00 67 1010.2
20260506133128 21 83 3.2 12.9 0.00 0.00 0.00 67 1010.2
20260506132625 21 118 6.4 11.3 0.00 0.00 0.00 68 1010.2
20260506132122 21 102 11.3 17.7 0.00 0.00 0.00 69 1010.3
20260506131619 20 151 3.2 17.7 0.00 0.00 0.00 70 1010.2
20260506131115 20 114 3.2 8.0 0.00 0.00 0.00 72 1010.1
20260506130613 20 101 3.2 14.5 0.00 0.00 0.00 72 1010.2
20260506130110 20 108 1.6 12.9 0.00 0.00 0.00 73 1010.2
20260506125608 19 115 6.4 17.7 0.00 0.00 0.00 74 1010.4
20260506125106 18 99 4.8 9.7 0.00 0.00 0.00 75 1010.1
20260506124603 18 91 6.4 9.7 0.00 0.00 0.00 76 1010.4
20260506124101 18 107 1.6 4.8 0.00 0.00 0.00 77 1010.4
20260506123558 18 103 4.8 9.7 0.00 0.00 0.00 77 1010.2
20260506123057 18 97 6.4 12.9 0.00 0.00 0.00 77 1010.1
20260506122553 18 109 1.6 8.0 0.00 0.00 0.00 77 1010.2
20260506122051 18 64 4.8 8.0 0.00 0.00 0.00 77 1010.5
20260506121548 18 118 3.2 9.7 0.00 0.00 0.00 77 1010.3
20260506121044 18 108 1.6 3.2 0.00 0.00 0.00 78 1010.3
20260506120543 18 77 4.8 9.7 0.00 0.00 0.00 77 1010.3
20260506120039 18 128 6.4 14.5 0.00 0.00 0.00 77 1010.4
20260506115537 18 108 1.6 14.5 0.00 0.00 0.00 77 1010.3
20260506115036 18 107 1.6 11.3 0.00 0.00 0.00 78 1010.5
20260506114533 17 160 9.7 14.5 0.00 0.00 0.00 79 1010.4
20260506114031 17 95 3.2 8.0 0.00 0.00 0.00 79 1010.8
20260506113529 17 100 3.2 8.0 0.00 0.00 0.00 80 1010.7
20260506113026 17 6 6.4 9.7 0.00 0.00 0.00 80 1010.6
20260506112522 17 111 3.2 8.0 0.00 0.00 0.00 81 1010.6
20260506112020 17 94 8.0 16.1 0.00 0.00 0.00 81 1010.7
20260506111518 17 78 8.0 11.3 0.00 0.00 0.00 81 1010.6
20260506111014 17 105 4.8 12.9 0.00 0.00 0.00 81 1010.6
20260506110512 16 110 3.2 16.1 0.00 0.00 0.00 82 1010.6
20260506110009 16 112 4.8 9.7 0.00 0.00 0.00 83 1010.4
20260506105505 16 95 3.2 14.5 0.00 0.00 0.00 83 1010.6
20260506105003 16 104 3.2 9.7 0.00 0.00 0.00 84 1010.5
20260506104500 16 66 4.8 8.0 0.00 0.00 0.00 84 1010.6
20260506103958 16 16 3.2 4.8 0.00 0.00 0.00 85 1010.8
20260506103455 16 129 11.3 14.5 0.00 0.00 0.00 85 1010.5
20260506102952 16 98 1.6 11.3 0.00 0.00 0.00 85 1010.4
20260506102450 16 117 1.6 4.8 0.00 0.00 0.00 85 1010.5
20260506101947 16 94 6.4 8.0 0.00 0.00 0.00 85 1010.6
20260506101443 16 101 4.8 12.9 0.00 0.00 0.00 85 1010.4
20260506100941 16 108 3.2 4.8 0.00 0.00 0.00 85 1010.4
20260506100439 16 82 1.6 4.8 0.00 0.00 0.00 85 1010.3
20260506095937 16 105 1.6 14.5 0.00 0.00 0.00 85 1010.3
20260506095435 16 103 3.2 4.8 0.00 0.00 0.00 85 1010.3
20260506094931 16 107 0.0 4.8 0.00 0.00 0.00 85 1010.4
20260506094430 16 115 3.2 4.8 0.00 0.00 0.00 85 1010.3
20260506093927 16 105 1.6 4.8 0.00 0.00 0.00 85 1010.4
20260506093425 16 89 4.8 9.7 0.00 0.00 0.00 85 1010.4
20260506092922 16 111 6.4 14.5 0.00 0.00 0.00 84 1010.5
20260506092420 16 72 9.7 17.7 0.00 0.00 0.00 85 1010.3
20260506091916 16 99 0.0 9.7 0.00 0.00 0.00 85 1010.5
20260506091415 16 113 3.2 4.8 0.00 0.00 0.00 85 1010.4
20260506090911 16 107 0.0 4.8 0.00 0.00 0.00 85 1010.4
20260506090409 16 50 8.0 14.5 0.00 0.00 0.00 85 1010.7
20260506085905 16 101 4.8 4.8 0.00 0.00 0.00 85 1010.5
20260506085402 16 117 4.8 9.7 0.00 0.00 0.00 85 1010.5
20260506084858 16 114 4.8 11.3 0.00 0.00 0.00 85 1010.7
20260506084355 16 161 6.4 11.3 0.00 0.00 0.00 84 1010.7
20260506083852 16 70 3.2 4.8 0.00 0.00 0.00 85 1010.8
20260506083349 16 128 8.0 9.7 0.00 0.00 0.00 84 1010.9
20260506082846 16 103 4.8 11.3 0.00 0.00 0.00 84 1010.6
20260506082343 16 107 3.2 11.3 0.00 0.00 0.00 84 1010.8
20260506081839 16 103 1.6 9.7 0.00 0.00 0.00 84 1010.7
20260506081338 16 109 3.2 4.8 0.00 0.00 0.00 84 1010.8
20260506080835 16 117 6.4 11.3 0.00 0.00 0.00 84 1010.6
20260506080331 16 152 12.9 16.1 0.00 0.00 0.00 84 1010.8
20260506073315 17 84 1.6 3.2 0.00 0.00 0.00 83 1011.2
20260506072812 17 133 4.8 8.0 0.00 0.00 0.00 83 1010.8
20260506072310 17 110 0.0 9.7 0.00 0.00 0.00 83 1010.9
20260506071807 17 95 3.2 3.2 0.00 0.00 0.00 83 1011.0
20260506071305 17 103 1.6 8.0 0.00 0.00 0.00 83 1010.9
20260506070802 17 115 1.6 3.2 0.00 0.00 0.00 82 1011.0
20260506070259 17 110 0.0 3.2 0.00 0.00 0.00 82 1011.0
20260506062236 17 104 4.8 12.9 0.00 0.00 0.00 81 1010.6
20260506061732 17 94 1.6 9.7 0.00 0.00 0.00 82 1010.9
20260506061229 17 110 0.0 4.8 0.00 0.00 0.00 82 1010.9
20260506060728 17 106 1.6 11.3 0.00 0.00 0.00 82 1010.8
20260506060224 17 100 1.6 8.0 0.00 0.00 0.00 81 1010.8
20260506051156 17 102 1.6 12.9 0.00 0.00 0.00 80 1011.3
20260506050655 17 104 1.6 11.3 0.00 0.00 0.00 79 1011.3
20260506050152 17 67 1.6 8.0 0.00 0.00 0.00 79 1011.2
20260506044643 17 112 0.0 4.8 0.00 0.00 0.00 78 1011.1
20260506044139 17 94 3.2 8.0 0.00 0.00 0.00 78 1011.6
20260506043637 17 108 1.6 12.9 0.00 0.00 0.00 77 1011.4
20260506043134 17 131 1.6 4.8 0.00 0.00 0.00 77 1011.6
20260506042633 18 109 0.0 3.2 0.00 0.00 0.00 77 1011.3
20260506042131 18 127 3.2 8.0 0.00 0.00 0.00 77 1011.5
20260506041629 18 118 3.2 8.0 0.00 0.00 0.00 76 1011.3
20260506041125 18 121 1.6 8.0 0.00 0.00 0.00 76 1011.2
20260506040623 18 46 3.2 8.0 0.00 0.00 0.00 76 1011.5
20260506040120 18 104 0.0 3.2 0.00 0.00 0.00 76 1011.3
20260506035617 18 81 1.6 4.8 0.00 0.00 0.00 75 1011.2
20260506035113 18 95 4.8 16.1 0.00 0.00 0.00 75 1011.6
20260506034611 18 120 4.8 11.3 0.00 0.00 0.00 75 1011.3
20260506034108 18 82 4.8 8.0 0.00 0.00 0.00 75 1011.5
20260506033605 18 95 1.6 8.0 0.00 0.00 0.00 74 1011.3
20260506033102 18 116 8.0 14.5 0.00 0.00 0.00 74 1011.3
20260506032559 18 106 4.8 14.5 0.00 0.00 0.00 74 1011.4
20260506032056 18 95 8.0 11.3 0.00 0.00 0.00 74 1011.3
20260506031553 18 332 4.8 16.1 0.00 0.00 0.00 74 1011.3
20260506031050 18 109 4.8 9.7 0.00 0.00 0.00 73 1011.4
20260506030548 18 115 1.6 11.3 0.00 0.00 0.00 73 1011.2
20260506030045 19 124 9.7 12.9 0.00 0.00 0.00 73 1011.4
20260506025542 19 43 6.4 9.7 0.00 0.00 0.00 73 1011.1
20260506025038 19 97 3.2 17.7 0.00 0.00 0.00 72 1011.4
20260506024535 19 83 1.6 9.7 0.00 0.00 0.00 73 1011.5
20260506024031 19 116 4.8 12.9 0.00 0.00 0.00 73 1011.6
20260506023528 19 93 3.2 8.0 0.00 0.00 0.00 72 1011.7
20260506023026 19 112 4.8 12.9 0.00 0.00 0.00 72 1011.6
20260506022523 19 105 4.8 32.2 0.00 0.00 0.00 72 1011.8
20260506022020 19 103 4.8 9.7 0.00 0.00 0.00 72 1011.6
20260506021518 19 101 1.6 9.7 0.00 0.00 0.00 71 1011.6
20260506021015 19 86 4.8 17.7 0.00 0.00 0.00 71 1011.4
20260506020512 19 105 1.6 17.7 0.00 0.00 0.00 71 1011.5
20260506020010 20 100 1.6 4.8 0.00 0.00 0.00 71 1011.5
20260506015507 20 119 6.4 8.0 0.00 0.00 0.00 70 1011.6
20260506015004 20 126 1.6 20.9 0.00 0.00 0.00 69 1011.5
20260506014501 20 116 4.8 16.1 0.00 0.00 0.00 69 1011.4
20260506013957 20 107 4.8 22.5 0.00 0.00 0.00 68 1011.2
20260506013455 20 109 1.6 9.7 0.00 0.00 0.00 68 1011.1
20260506012950 20 111 6.4 9.7 0.00 0.00 0.00 67 1011.0
20260506012447 20 91 1.6 9.7 0.00 0.00 0.00 66 1011.3
20260506011944 20 109 3.2 16.1 0.00 0.00 0.00 66 1011.0
20260506011442 20 55 16.1 22.5 0.00 0.00 0.00 66 1011.1
20260506010938 20 99 6.4 12.9 0.00 0.00 0.00 66 1011.1
20260506010438 20 107 1.6 20.9 0.00 0.00 0.00 65 1010.8
20260506005933 20 307 6.4 9.7 0.00 0.00 0.00 65 1010.9
20260506005432 20 100 4.8 8.0 0.00 0.00 0.00 65 1010.8
20260506004926 20 99 8.0 14.5 0.00 0.00 0.00 64 1010.9
20260506004425 20 103 8.0 20.9 0.00 0.00 0.00 64 1010.7
20260506003920 20 103 3.2 14.5 0.00 0.00 0.00 64 1010.6
20260506003417 20 132 4.8 9.7 0.00 0.00 0.00 64 1010.8
20260506002913 20 100 3.2 11.3 0.00 0.00 0.00 63 1010.8
20260506002409 20 98 1.6 8.0 0.00 0.00 0.00 63 1010.9
20260506001905 20 105 1.6 8.0 0.00 0.00 0.00 63 1010.5
20260506001402 21 43 6.4 12.9 0.00 0.00 0.00 61 1010.8
20260506000859 21 106 1.6 16.1 0.00 0.00 0.00 62 1010.7
20260506000357 21 110 3.2 9.7 0.00 0.00 0.00 61 1010.5
20260505235853 21 82 8.0 14.5 0.00 0.00 0.00 62 1010.6
20260505235351 21 112 4.8 20.9 0.00 0.00 0.00 61 1010.5
20260505234848 21 136 6.4 16.1 0.00 0.00 0.00 61 1010.5
20260505234346 21 92 3.2 9.7 0.00 0.00 0.00 61 1010.1
20260505233842 21 106 4.8 11.3 0.00 0.00 0.00 61 1010.2
20260505233340 21 114 3.2 8.0 0.00 0.00 0.00 61 1010.1
20260505232837 21 104 4.8 11.3 0.00 0.00 0.00 60 1009.9
20260505232335 21 122 4.8 12.9 0.00 0.00 0.00 59 1009.7
20260505231831 22 102 1.6 9.7 0.00 0.00 0.00 59 1009.9
20260505231329 22 109 1.6 9.7 0.00 0.00 0.00 58 1009.7
20260505230827 22 120 3.2 11.3 0.00 0.00 0.00 58 1009.6
20260505230324 22 100 3.2 9.7 0.00 0.00 0.00 58 1009.7
20260505225821 22 106 1.6 16.1 0.00 0.00 0.00 58 1009.7
20260505225318 22 66 4.8 8.0 0.00 0.00 0.00 58 1009.3
20260505224813 22 146 6.4 11.3 0.00 0.00 0.00 58 1009.3
20260505224311 22 92 4.8 11.3 0.00 0.00 0.00 58 1009.5
20260505223808 22 131 8.0 11.3 0.00 0.00 0.00 57 1009.3
20260505223305 22 46 9.7 14.5 0.00 0.00 0.00 57 1009.3
20260505222801 22 95 3.2 12.9 0.00 0.00 0.00 57 1009.4
20260505222257 22 94 4.8 11.3 0.00 0.00 0.00 58 1009.4
20260505221754 22 116 6.4 9.7 0.00 0.00 0.00 58 1009.2
20260505221251 22 20 4.8 9.7 0.00 0.00 0.00 57 1009.2
20260505220748 23 56 6.4 11.3 0.00 0.00 0.00 57 1009.1
20260505220245 23 102 3.2 9.7 0.00 0.00 0.00 57 1009.3
20260505215743 23 107 1.6 14.5 0.00 0.00 0.00 58 1009.0
20260505215241 23 99 3.2 8.0 0.00 0.00 0.00 58 1009.0
20260505214738 23 104 3.2 8.0 0.00 0.00 0.00 58 1009.3
20260505214235 23 105 1.6 4.8 0.00 0.00 0.00 58 1009.0
20260505213733 23 100 3.2 9.7 0.00 0.00 0.00 59 1009.0
20260505213230 23 358 4.8 14.5 0.00 0.00 0.00 59 1008.9
20260505212726 23 120 3.2 12.9 0.00 0.00 0.00 59 1008.9
20260505212223 23 11 6.4 14.5 0.00 0.00 0.00 59 1008.8
20260505211720 23 31 4.8 9.7 0.00 0.00 0.00 58 1008.8
20260505211218 23 57 4.8 14.5 0.00 0.00 0.00 59 1008.9
20260505210714 23 69 3.2 8.0 0.00 0.00 0.00 60 1008.9
20260505210211 23 99 4.8 14.5 0.00 0.00 0.00 60 1008.8
20260505205708 24 96 3.2 9.7 0.00 0.00 0.00 60 1008.7
20260505205206 23 92 3.2 12.9 0.00 0.00 0.00 60 1008.8
20260505204702 23 105 3.2 16.1 0.00 0.00 0.00 60 1008.8
20260505204200 23 99 1.6 9.7 0.00 0.00 0.00 59 1008.6
20260505203658 24 77 4.8 9.7 0.00 0.00 0.00 59 1008.8
20260505203154 23 123 8.0 11.3 0.00 0.00 0.00 59 1008.7
20260505202650 23 88 8.0 12.9 0.00 0.00 0.00 60 1008.8